QPF
0.00 0.00 0.00 0.00 0.00 0.00 0.00 0.00 0.00 0.00 0.00 0.00 0.00 0.00 0.00 0.00 0.00 0.00 0.00 0.00 0.00 0.00 0.00 0.00 0.00 0.00 0.00 0.00 0.00 0.00 0.00 0.00 0.00 0.00 0.00 0.00 0.01 0.01 0.01 0.00 0.02 0.00 0.01 0.01
0.00 0.00 0.00 0.00 0.00 0.00 0.00 0.00 0.00 0.00 0.00 0.00 0.00 0.00 0.00 0.00 0.00 0.00 0.00 0.00 0.00 0.00 0.00 0.00 0.00 0.00 0.00 0.00 0.00 0.00 0.00 0.00 0.00 0.00 0.00 0.00 0.00 0.01 0.00 0.00 0.00 0.00 0.00 0.00
0.00 0.00 0.00 0.00 0.00 0.00 0.00 0.00 0.00 0.00 0.00 0.00 0.00 0.00 0.00 0.00 0.00 0.00 0.00 0.00 0.00 0.00 0.00 0.00 0.00 0.00 0.00 0.00 0.00 0.00 0.00 0.00 0.01 0.00 0.00 0.00 0.00 0.00 0.00 0.00 0.00 0.00 0.00 0.00
0.00 0.00 0.00 0.00 0.00 0.00 0.00 0.00 0.00 0.00 0.00 0.00 0.00 0.00 0.00 0.00 0.00 0.00 0.00 0.00 0.00 0.00 0.00 0.00 0.00 0.00 0.00 0.00 0.00 0.00 0.00 0.00 0.00 0.00 0.00 0.00 0.00 0.00 0.00 0.00 0.00 0.00 0.00 0.00
0.00 0.00 0.00 0.00 0.00 0.00 0.00 0.00 0.00 0.00 0.00 0.00 0.00 0.00 0.00 0.00 0.00 0.00 0.00 0.00 0.00 0.00 0.00 0.00 0.00 0.00 0.00 0.00 0.00 0.00 0.00 0.00 0.00 0.00 0.00 0.00 0.00 0.00 0.00 0.00 0.00 0.00 0.00 0.00
0.00 0.00 0.00 0.00 0.00 0.00 0.00 0.00 0.00 0.00 0.00 0.00 0.00 0.00 0.00 0.00 0.00 0.00 0.00 0.00 0.00 0.00 0.00 0.00 0.00 0.00 0.00 0.00 0.00 0.00 0.00 0.00 0.00 0.00 0.00 0.00 0.00 0.00 0.00 0.00 0.00 0.00 0.00 0.00
0.00 0.00 0.00 0.00 0.00 0.00 0.00 0.00 0.00 0.00 0.00 0.00 0.00 0.00 0.00 0.00 0.00 0.00 0.00 0.00 0.00 0.00 0.00 0.00 0.00 0.00 0.00 0.00 0.00 0.00 0.00 0.00 0.00 0.00 0.00 0.00 0.00 0.00 0.00 0.00 0.00 0.00 0.00 0.00
0.00 0.00 0.00 0.00 0.00 0.00 0.00 0.00 0.00 0.01 0.00 0.00 0.00 0.00 0.00 0.00 0.00 0.00 0.00 0.00 0.00 0.00 0.00 0.00 0.00 0.00 0.00 0.00 0.00 0.00 0.00 0.00 0.00 0.00 0.00 0.00 0.00 0.00 0.00 0.00 0.00 0.00 0.00 0.00
0.00 0.00 0.00 0.00 0.00 0.00 0.00 0.00 0.00 0.01 0.00 0.01 0.00 0.00 0.00 0.00 0.00 0.00 0.00 0.00 0.00 0.00 0.00 0.00 0.00 0.00 0.00 0.00 0.00 0.00 0.00 0.00 0.00 0.00 0.00 0.00 0.00 0.00 0.00 0.00 0.00 0.00 0.00 0.00
0.00 0.00 0.00 0.00 0.00 0.00 0.00 0.00 0.00 0.01 0.06 0.02 0.00 0.00 0.00 0.00 0.00 0.00 0.00 0.00 0.00 0.00 0.00 0.00 0.00 0.00 0.00 0.00 0.00 0.00 0.00 0.00 0.00 0.00 0.00 0.00 0.00 0.00 0.00 0.00 0.00 0.00 0.00 0.00
0.00 0.02 0.00 0.00 0.00 0.00 0.00 0.00 0.00 0.02 0.03 0.02 0.01 0.00 0.00 0.00 0.00 0.00 0.00 0.00 0.00 0.00 0.00 0.00 0.00 0.00 0.00 0.00 0.00 0.00 0.00 0.00 0.00 0.00 0.00 0.00 0.00 0.00 0.00 0.00 0.00 0.00 0.00 0.00
0.00 0.03 0.01 0.00 0.00 0.00 0.00 0.00 0.00 0.04 0.07 0.02 0.01 0.00 0.00 0.00 0.00 0.00 0.00 0.00 0.00 0.00 0.00 0.00 0.00 0.00 0.00 0.00 0.00 0.00 0.00 0.00 0.00 0.00 0.00 0.00 0.00 0.00 0.00 0.00 0.00 0.00 0.00 0.00
0.11 0.10 0.05 0.03 0.02 0.00 0.00 0.00 0.00 0.01 0.02 0.01 0.01 0.00 0.00 0.00 0.00 0.00 0.00 0.00 0.00 0.00 0.00 0.00 0.00 0.00 0.00 0.00 0.00 0.00 0.00 0.00 0.00 0.00 0.00 0.00 0.00 0.00 0.00 0.00 0.00 0.00 0.00 0.00
0.26 0.17 0.09 0.02 0.01 0.00 0.01 0.00 0.00 0.01 0.05 0.01 0.01 0.00 0.00 0.00 0.00 0.00 0.00 0.00 0.00 0.00 0.00 0.00 0.00 0.00 0.00 0.00 0.00 0.00 0.00 0.00 0.00 0.00 0.00 0.00 0.00 0.00 0.00 0.00 0.00 0.00 0.00 0.00
0.25 0.20 0.09 0.05 0.00 0.00 0.00 0.00 0.00 0.02 0.01 0.02 0.00 0.00 0.00 0.00 0.00 0.00 0.00 0.00 0.00 0.00 0.00 0.00 0.00 0.00 0.00 0.00 0.00 0.00 0.00 0.00 0.00 0.00 0.00 0.00 0.00 0.00 0.00 0.00 0.00 0.00 0.00 0.00
0.16 0.10 0.07 0.07 0.01 0.01 0.00 0.00 0.01 0.00 0.00 0.00 0.00 0.00 0.00 0.00 0.00 0.00 0.00 0.00 0.00 0.00 0.00 0.00 0.00 0.00 0.00 0.00 0.00 0.00 0.00 0.00 0.00 0.00 0.00 0.00 0.00 0.00 0.00 0.00 0.00 0.00 0.00 0.00
0.10 0.12 0.07 0.08 0.02 0.05 0.07 0.01 0.01 0.01 0.00 0.00 0.00 0.00 0.00 0.00 0.00 0.00 0.00 0.00 0.00 0.00 0.00 0.00 0.00 0.00 0.00 0.00 0.00 0.00 0.00 0.00 0.00 0.00 0.00 0.00 0.00 0.00 0.00 0.00 0.00 0.00 0.00 0.00
0.08 0.11 0.16 0.11 0.03 0.11 0.04 0.00 0.00 0.00 0.00 0.00 0.00 0.00 0.00 0.00 0.00 0.00 0.00 0.00 0.00 0.00 0.00 0.00 0.00 0.00 0.00 0.00 0.00 0.00 0.00 0.00 0.00 0.00 0.00 0.00 0.00 0.00 0.00 0.00 0.00 0.00 0.00 0.00
0.00 0.03 0.13 0.11 0.07 0.05 0.00 0.00 0.00 0.00 0.00 0.00 0.00 0.00 0.00 0.00 0.00 0.00 0.00 0.00 0.00 0.00 0.00 0.00 0.00 0.00 0.00 0.00 0.00 0.00 0.00 0.00 0.00 0.00 0.00 0.00 0.00 0.00 0.00 0.00 0.00 0.00 0.00 0.00
0.00 0.01 0.05 0.05 0.08 0.06 0.01 0.00 0.00 0.01 0.03 0.00 0.00 0.00 0.00 0.00 0.00 0.00 0.00 0.00 0.00 0.00 0.00 0.00 0.00 0.00 0.00 0.00 0.00 0.00 0.00 0.00 0.00 0.00 0.00 0.00 0.00 0.00 0.00 0.00 0.00 0.00 0.00 0.00
0.02 0.03 0.09 0.04 0.04 0.02 0.00 0.00 0.00 0.05 0.04 0.00 0.00 0.00 0.00 0.00 0.00 0.00 0.00 0.00 0.00 0.00 0.00 0.00 0.00 0.00 0.00 0.00 0.00 0.00 0.00 0.00 0.00 0.00 0.00 0.00 0.00 0.00 0.00 0.00 0.00 0.00 0.00 0.00
0.04 0.07 0.09 0.07 0.10 0.04 0.00 0.01 0.04 0.02 0.00 0.00 0.00 0.00 0.00 0.00 0.00 0.00 0.00 0.00 0.00 0.00 0.00 0.00 0.00 0.01 0.00 0.00 0.01 0.01 0.01 0.00 0.00 0.00 0.00 0.00 0.00 0.00 0.00 0.00 0.00 0.00 0.00 0.00
0.02 0.06 0.12 0.15 0.14 0.06 0.01 0.01 0.04 0.05 0.02 0.01 0.00 0.00 0.00 0.00 0.00 0.00 0.00 0.00 0.00 0.00 0.00 0.00 0.01 0.01 0.01 0.01 0.01 0.01 0.00 0.00 0.00 0.00 0.00 0.00 0.00 0.00 0.00 0.00 0.00 0.00 0.00 0.00
0.03 0.02 0.06 0.07 0.08 0.11 0.15 0.09 0.04 0.04 0.04 0.02 0.01 0.00 0.00 0.00 0.00 0.00 0.00 0.00 0.00 0.01 0.03 0.03 0.02 0.02 0.02 0.01 0.01 0.01 0.00 0.00 0.00 0.00 0.00 0.00 0.00 0.00 0.00 0.00 0.00 0.00 0.00 0.00
0.03 0.05 0.04 0.02 0.00 0.01 0.02 0.07 0.08 0.05 0.01 0.02 0.01 0.00 0.00 0.00 0.00 0.00 0.00 0.00 0.00 0.00 0.01 0.02 0.04 0.06 0.03 0.01 0.01 0.00 0.00 0.00 0.00 0.00 0.00 0.00 0.00 0.00 0.00 0.00 0.00 0.00 0.00 0.00
0.01 0.01 0.03 0.02 0.02 0.01 0.01 0.00 0.02 0.04 0.01 0.00 0.01 0.00 0.00 0.00 0.00 0.00 0.00 0.00 0.00 0.00 0.00 0.01 0.02 0.04 0.02 0.01 0.00 0.00 0.00 0.00 0.00 0.00 0.00 0.00 0.00 0.00 0.00 0.00 0.00 0.00 0.00 0.00
MSLP
1006.67 1006.76 1004.46 1003.38 1003.54 1003.15 1002.52 1001.76 1000.61 1000.05 1000.03 999.96 999.45 999.19 998.83 998.39 998.17 998.06 998.31 998.21 998.23 999.07 999.60 1000.31 1001.86 1002.45 1002.72 1002.88 1003.39 1004.05 1005.54 1007.56 1008.37 1008.99 1009.51 1010.11 1010.36 1010.83 1011.18 1011.61 1012.12 1012.50 1012.81 1012.79
1006.28 1003.99 1002.16 1003.75 1003.13 1002.89 1002.79 1002.15 1001.15 1000.73 1000.36 1000.39 999.64 998.93 998.88 998.43 997.68 997.40 997.39 997.67 998.03 998.25 999.12 1000.36 1001.58 1002.10 1002.66 1003.03 1003.65 1004.13 1005.99 1007.44 1008.23 1008.80 1009.17 1009.72 1009.71 1010.24 1011.03 1011.68 1011.77 1012.20 1012.51 1012.79
1003.25 1000.93 1003.16 1002.65 1002.35 1002.26 1001.72 1001.38 1001.12 1001.04 1000.92 1000.36 1000.04 998.81 998.37 998.14 997.69 997.16 996.77 996.88 997.07 997.52 998.09 999.56 1001.13 1001.79 1002.37 1002.91 1003.66 1004.46 1006.24 1007.37 1008.14 1008.68 1009.21 1009.78 1010.18 1010.77 1011.13 1011.59 1011.95 1012.29 1012.51 1012.96
1002.22 1001.47 1001.55 1001.53 1001.29 1001.34 1000.40 1000.88 1001.44 1001.62 1001.45 999.92 1000.10 997.15 996.87 996.23 995.44 995.28 995.49 995.93 996.32 997.03 997.29 998.12 1000.12 1001.42 1001.90 1002.73 1003.83 1004.80 1006.11 1007.10 1008.03 1008.55 1009.29 1009.51 1009.99 1010.58 1011.23 1011.44 1011.83 1012.32 1012.83 1013.06
1001.24 1000.76 1000.93 1000.33 999.70 1000.50 999.76 1000.92 1001.01 1001.38 1001.44 1001.07 1000.07 998.53 994.91 996.02 994.84 994.32 994.14 994.38 995.14 996.24 997.02 997.49 999.30 1001.03 1001.84 1002.60 1003.97 1005.03 1006.45 1007.19 1008.08 1008.65 1009.21 1009.68 1010.18 1010.40 1010.99 1011.54 1012.00 1012.26 1012.75 1013.11
1000.83 1000.26 999.93 999.49 999.41 1000.05 1000.16 1000.91 1001.15 1001.36 1001.37 1000.40 998.73 998.57 993.45 995.33 994.70 994.31 994.29 994.13 994.77 996.16 996.63 997.28 998.71 1000.64 1001.72 1002.51 1003.93 1005.45 1006.48 1007.13 1007.78 1008.39 1009.12 1009.61 1010.07 1010.54 1011.22 1011.42 1012.21 1012.13 1012.65 1012.93
1000.52 999.77 999.39 999.43 999.29 999.56 999.81 1000.15 1000.28 1000.79 999.91 998.53 997.91 998.10 993.80 994.80 993.85 993.12 994.02 993.72 994.24 995.43 996.50 997.70 998.48 1000.09 1001.56 1002.88 1004.00 1005.36 1006.18 1006.78 1007.46 1008.00 1008.60 1009.46 1010.24 1010.60 1010.83 1011.37 1011.70 1012.32 1012.61 1012.90
1000.30 999.19 999.23 998.27 997.25 997.71 998.53 998.81 999.43 999.39 998.89 997.88 997.10 996.39 994.60 994.36 993.85 993.88 993.91 993.96 994.20 995.08 996.16 997.16 998.49 1000.00 1001.54 1002.96 1003.99 1004.79 1005.45 1006.23 1007.05 1007.79 1008.50 1009.31 1010.26 1010.58 1011.05 1011.48 1011.66 1012.24 1012.73 1013.16
999.42 997.62 998.04 997.51 997.37 997.94 997.67 997.68 998.56 999.14 998.99 997.88 996.51 994.83 994.22 994.27 993.26 992.92 993.58 993.93 994.25 994.74 995.68 996.75 998.17 999.77 1001.09 1002.68 1003.89 1004.59 1005.09 1005.99 1007.00 1007.80 1008.51 1009.28 1009.97 1010.63 1010.91 1011.62 1012.06 1012.38 1012.82 1013.11
999.72 997.85 996.63 996.82 997.11 997.15 997.05 997.92 998.56 999.14 999.56 998.82 997.20 995.02 993.48 992.81 992.36 992.54 992.84 993.03 993.78 994.27 995.13 996.66 998.05 999.69 1001.00 1002.37 1003.58 1004.46 1005.11 1005.91 1006.92 1007.88 1008.63 1009.13 1009.97 1010.84 1011.38 1011.93 1012.33 1012.69 1013.00 1013.29
1001.83 1000.59 997.73 996.73 995.27 995.59 996.18 996.63 997.45 998.00 998.99 998.62 997.36 994.79 993.84 992.58 992.69 992.64 992.56 992.54 993.18 993.82 994.88 996.62 998.03 999.65 1000.92 1002.14 1003.18 1004.18 1005.02 1005.95 1006.98 1008.04 1008.49 1009.25 1010.08 1010.84 1011.54 1012.09 1012.51 1012.83 1013.20 1013.45
1001.52 1000.77 999.08 997.19 995.99 994.85 995.24 995.03 996.58 997.67 999.29 998.89 997.27 994.82 993.19 992.55 992.28 992.08 992.18 992.19 992.48 993.33 994.14 996.51 997.87 999.17 1000.49 1001.75 1002.97 1004.04 1004.87 1005.81 1006.97 1007.78 1008.60 1009.41 1010.33 1011.09 1011.54 1011.97 1012.61 1013.13 1013.45 1013.66
1007.03 1003.89 1000.95 998.70 997.28 995.50 994.00 994.20 994.67 996.40 997.81 997.82 997.09 995.48 992.52 993.26 992.63 992.42 992.44 992.01 991.23 992.19 993.59 995.62 997.52 998.96 1000.16 1001.40 1002.86 1004.06 1004.85 1005.92 1006.91 1007.71 1008.73 1009.63 1010.35 1011.24 1011.76 1012.32 1012.67 1013.23 1013.65 1013.98
1008.93 1006.08 1002.71 998.03 995.70 995.03 993.77 993.73 994.63 994.17 995.14 995.64 994.89 994.31 992.41 991.18 991.89 991.75 991.65 991.76 991.92 991.98 993.32 995.35 997.20 998.66 1000.00 1000.94 1002.53 1003.75 1005.03 1006.07 1006.82 1007.73 1008.68 1009.65 1010.44 1011.20 1011.97 1012.45 1012.95 1013.50 1013.95 1014.26
1008.22 1006.32 1004.33 1001.54 998.76 996.01 993.93 993.10 992.98 992.97 993.19 993.66 993.54 992.89 991.43 990.32 991.13 990.94 990.74 990.99 991.57 992.37 993.78 995.44 997.10 998.46 999.46 1000.79 1002.28 1003.58 1004.92 1005.96 1006.61 1007.57 1008.51 1009.63 1010.62 1011.48 1011.88 1012.53 1013.24 1013.86 1014.28 1014.35
1007.30 1006.64 1005.02 1002.80 999.75 997.36 994.39 992.19 991.48 991.97 992.44 991.88 991.57 991.21 990.70 989.38 990.52 990.00 990.21 990.65 991.74 992.81 994.16 995.31 996.76 998.13 999.24 1000.39 1001.74 1003.26 1004.64 1005.82 1006.61 1007.59 1008.57 1009.62 1010.71 1011.33 1012.15 1012.87 1013.54 1013.92 1014.14 1014.30
1006.60 1006.32 1005.51 1002.99 1000.54 998.17 994.82 992.87 990.82 991.18 990.86 990.76 989.75 989.37 989.10 989.01 989.05 988.61 989.56 990.21 991.35 992.66 993.98 994.82 995.97 997.21 998.72 999.99 1001.37 1002.78 1004.47 1005.65 1006.29 1007.52 1008.96 1009.97 1010.26 1012.00 1012.80 1013.30 1013.54 1013.92 1014.23 1014.46
1004.99 1005.46 1004.66 1002.42 1000.82 998.11 994.86 992.75 991.62 990.60 989.81 990.17 989.61 988.75 987.92 987.47 987.25 988.10 988.96 989.67 990.14 991.47 993.19 994.24 995.76 997.21 998.41 999.99 1001.54 1002.87 1004.42 1005.16 1005.93 1007.49 1009.35 1010.14 1010.78 1012.35 1013.14 1013.58 1013.91 1014.28 1014.51 1014.61
1002.60 1003.81 1003.48 1003.02 1001.01 997.58 994.65 992.35 990.51 989.81 988.58 988.73 988.66 987.97 986.78 986.67 987.03 987.27 988.19 988.64 989.48 990.94 992.42 993.78 994.55 996.15 997.99 999.77 1001.32 1002.72 1004.15 1004.70 1005.74 1006.95 1008.54 1009.82 1010.37 1012.06 1012.89 1013.38 1013.79 1014.17 1014.34 1014.36
1000.03 1000.58 1001.07 1001.95 1000.90 997.59 993.39 990.61 989.78 989.17 988.10 988.24 987.23 987.28 986.90 986.91 986.69 986.43 987.56 988.80 989.36 991.01 992.34 993.69 994.76 995.94 998.03 999.72 1001.26 1002.93 1003.89 1004.52 1005.59 1007.28 1008.51 1009.83 1009.89 1011.25 1012.30 1013.05 1013.61 1013.95 1014.02 1014.13
999.79 1000.59 1000.47 1000.34 999.39 996.32 992.06 992.46 990.19 987.53 987.72 986.81 987.06 986.73 986.25 986.11 985.86 986.45 987.89 988.51 989.74 991.18 992.30 993.71 996.04 997.03 998.14 1000.06 1001.63 1002.90 1004.09 1004.76 1006.38 1008.06 1009.02 1009.62 1009.69 1011.13 1012.01 1012.92 1013.57 1013.66 1013.72 1013.85
996.99 997.75 997.82 998.31 997.40 995.37 993.16 991.14 989.18 987.91 987.51 987.39 987.07 986.34 986.40 986.67 986.69 986.99 987.68 988.89 990.36 991.97 993.97 995.29 995.98 998.23 999.69 1001.02 1002.14 1002.99 1004.70 1006.48 1007.88 1008.76 1009.31 1009.38 1010.58 1011.45 1012.13 1012.84 1013.16 1013.35 1013.56 1013.64
994.73 994.01 994.16 994.46 993.79 993.16 992.73 993.07 991.72 990.79 989.29 988.67 988.25 988.02 987.22 986.89 986.39 987.69 988.46 989.93 991.24 993.07 994.87 996.19 997.43 999.04 1000.67 1001.88 1002.72 1004.32 1006.15 1007.89 1008.80 1009.13 1009.41 1010.49 1011.33 1011.93 1012.48 1012.82 1013.11 1013.37 1013.61 1013.67
993.24 992.63 992.44 993.21 991.90 992.17 992.26 991.89 991.97 991.77 990.94 989.82 989.10 988.40 987.94 987.26 986.79 988.23 988.93 990.76 992.29 993.89 995.69 997.52 999.26 1000.02 1001.44 1002.55 1003.51 1005.43 1007.15 1008.17 1008.42 1009.07 1010.15 1010.93 1011.39 1012.07 1012.58 1012.92 1013.07 1013.35 1013.60 1013.59
992.84 991.90 991.86 991.11 991.00 991.45 991.49 989.82 990.94 991.55 990.80 989.64 989.17 988.60 988.21 987.66 987.49 988.45 989.89 991.42 993.03 994.68 996.27 997.75 999.22 1000.42 1001.81 1002.50 1005.23 1006.44 1006.80 1007.62 1008.44 1009.42 1010.28 1010.80 1011.54 1012.15 1012.54 1012.91 1013.18 1013.41 1013.81 1013.77
992.63 991.67 991.35 990.43 990.25 989.75 988.37 989.48 990.55 990.52 990.03 989.63 989.30 989.17 988.82 988.42 988.37 988.96 990.11 992.14 993.84 995.38 997.10 998.16 999.30 1000.64 1002.19 1003.85 1004.85 1006.36 1007.28 1007.77 1008.58 1009.59 1010.30 1011.05 1011.50 1011.93 1012.26 1012.92 1013.41 1013.78 1013.93 1013.95
Thickness
5644 5629 5654 5684 5687 5695 5696 5695 5703 5719 5731 5721 5724 5728 5739 5760 5763 5765 5766 5773 5779 5775 5785 5785 5776 5774 5774 5775 5770 5766 5754 5735 5728 5721 5715 5709 5707 5706 5704 5700 5694 5691 5688 5688
5622 5637 5691 5679 5684 5679 5673 5672 5685 5704 5713 5708 5714 5718 5732 5744 5756 5764 5766 5768 5769 5774 5774 5772 5768 5768 5765 5763 5760 5758 5742 5729 5722 5717 5713 5707 5705 5704 5698 5691 5689 5686 5682 5679
5629 5677 5672 5666 5668 5662 5671 5671 5681 5679 5696 5703 5699 5698 5719 5735 5747 5759 5766 5770 5772 5771 5770 5769 5760 5759 5759 5756 5752 5748 5733 5724 5717 5711 5705 5699 5694 5688 5685 5682 5679 5677 5674 5669
5631 5672 5658 5655 5654 5666 5660 5687 5676 5669 5663 5665 5696 5683 5718 5742 5750 5759 5764 5763 5762 5765 5774 5773 5760 5752 5753 5749 5745 5739 5728 5719 5711 5705 5695 5692 5685 5676 5673 5672 5671 5666 5661 5659
5625 5651 5640 5643 5665 5669 5666 5676 5669 5664 5653 5655 5665 5670 5721 5734 5733 5749 5763 5765 5760 5765 5767 5765 5756 5747 5745 5743 5735 5727 5716 5710 5703 5696 5688 5679 5674 5670 5667 5662 5658 5657 5652 5648
5632 5657 5647 5655 5671 5661 5674 5656 5654 5653 5648 5624 5667 5664 5714 5716 5729 5739 5751 5759 5754 5756 5760 5759 5752 5742 5736 5735 5726 5714 5705 5700 5696 5689 5681 5674 5665 5658 5652 5653 5644 5646 5641 5638
5621 5627 5645 5646 5640 5653 5652 5642 5618 5604 5619 5629 5683 5654 5710 5723 5738 5746 5742 5755 5752 5754 5749 5743 5742 5733 5727 5718 5713 5704 5697 5692 5688 5683 5677 5666 5656 5651 5646 5641 5638 5633 5630 5627
5589 5595 5621 5650 5656 5653 5641 5642 5614 5590 5613 5643 5680 5644 5688 5730 5736 5740 5740 5745 5746 5744 5742 5740 5733 5724 5715 5707 5701 5696 5692 5685 5679 5673 5665 5658 5647 5641 5635 5630 5629 5623 5618 5613
5589 5603 5638 5638 5650 5644 5638 5623 5649 5629 5643 5642 5659 5686 5701 5717 5721 5728 5724 5730 5731 5735 5735 5731 5727 5718 5709 5699 5691 5686 5683 5677 5668 5660 5654 5648 5639 5631 5627 5620 5616 5612 5607 5603
5589 5591 5630 5633 5634 5631 5628 5644 5613 5611 5581 5586 5629 5657 5675 5706 5715 5722 5721 5717 5722 5731 5726 5720 5715 5706 5699 5690 5683 5678 5674 5666 5656 5647 5640 5636 5627 5618 5612 5605 5601 5597 5594 5590
5561 5563 5594 5616 5622 5616 5623 5613 5620 5625 5605 5596 5614 5643 5697 5710 5707 5707 5714 5719 5710 5716 5714 5706 5701 5694 5686 5680 5675 5669 5662 5654 5643 5632 5628 5622 5614 5605 5598 5592 5587 5584 5579 5575
5564 5553 5557 5582 5618 5638 5624 5625 5615 5585 5572 5586 5609 5631 5706 5710 5707 5707 5704 5712 5711 5711 5706 5692 5688 5684 5677 5671 5665 5657 5651 5644 5632 5624 5616 5609 5600 5591 5586 5582 5575 5569 5564 5561
5463 5496 5533 5553 5576 5604 5612 5622 5629 5614 5593 5576 5582 5612 5705 5690 5690 5693 5687 5699 5713 5707 5700 5688 5677 5671 5665 5661 5653 5645 5639 5630 5621 5614 5604 5595 5588 5578 5572 5566 5562 5556 5551 5546
5425 5462 5508 5559 5586 5603 5603 5609 5607 5619 5584 5594 5601 5627 5673 5694 5682 5687 5688 5690 5695 5698 5689 5677 5669 5663 5657 5653 5643 5634 5624 5617 5610 5602 5592 5582 5573 5565 5557 5553 5547 5541 5536 5531
5425 5449 5471 5492 5542 5578 5597 5602 5607 5602 5611 5593 5614 5622 5663 5687 5680 5681 5686 5688 5681 5678 5670 5660 5653 5650 5648 5640 5631 5622 5613 5604 5600 5591 5581 5569 5558 5550 5547 5540 5532 5526 5520 5518
5410 5434 5450 5464 5522 5547 5568 5602 5615 5606 5608 5614 5622 5623 5664 5691 5681 5682 5679 5671 5660 5660 5655 5650 5644 5639 5635 5629 5622 5610 5599 5592 5587 5577 5566 5555 5547 5541 5533 5524 5518 5513 5509 5506
5411 5424 5435 5459 5503 5506 5527 5566 5602 5594 5606 5613 5610 5638 5670 5666 5672 5684 5670 5661 5644 5646 5644 5642 5639 5633 5624 5616 5607 5596 5586 5579 5575 5562 5542 5540 5539 5518 5512 5509 5507 5501 5497 5493
5419 5421 5426 5453 5469 5479 5533 5571 5583 5590 5606 5609 5614 5630 5653 5668 5685 5678 5664 5652 5654 5646 5637 5635 5627 5617 5611 5602 5590 5583 5573 5568 5563 5547 5528 5522 5520 5502 5496 5493 5489 5486 5482 5479
5440 5422 5429 5421 5453 5494 5531 5557 5580 5583 5597 5617 5616 5631 5649 5661 5665 5653 5661 5661 5647 5637 5632 5626 5625 5614 5600 5587 5578 5569 5560 5557 5550 5541 5528 5518 5510 5492 5487 5483 5480 5476 5472 5468
5460 5456 5435 5433 5437 5455 5533 5584 5601 5597 5564 5611 5625 5623 5632 5641 5607 5638 5657 5632 5635 5626 5618 5612 5610 5604 5587 5575 5564 5555 5551 5548 5540 5526 5515 5504 5503 5493 5482 5475 5470 5466 5462 5457
5431 5425 5417 5431 5436 5482 5557 5550 5574 5571 5580 5617 5607 5616 5628 5621 5631 5640 5626 5625 5620 5612 5606 5599 5582 5575 5570 5557 5550 5544 5538 5537 5522 5505 5497 5494 5493 5481 5473 5465 5458 5456 5451 5447
5456 5435 5438 5442 5452 5475 5527 5545 5573 5588 5597 5594 5601 5616 5613 5613 5615 5614 5611 5604 5597 5588 5576 5568 5567 5552 5545 5538 5533 5529 5512 5497 5492 5486 5482 5483 5473 5465 5460 5453 5449 5445 5440 5435
5461 5481 5485 5484 5495 5511 5519 5515 5534 5546 5567 5571 5579 5585 5596 5601 5608 5599 5594 5586 5578 5567 5555 5548 5541 5531 5521 5518 5513 5501 5483 5473 5468 5468 5467 5459 5453 5450 5445 5441 5437 5433 5427 5424
5470 5487 5483 5482 5508 5506 5514 5518 5520 5524 5536 5554 5564 5573 5582 5591 5599 5585 5581 5567 5561 5550 5537 5522 5509 5507 5500 5497 5492 5477 5467 5462 5462 5459 5451 5445 5442 5436 5432 5428 5426 5421 5416 5413
5465 5482 5485 5497 5508 5510 5515 5534 5516 5511 5528 5541 5554 5563 5570 5579 5583 5574 5563 5555 5546 5535 5521 5514 5504 5497 5488 5488 5467 5460 5460 5457 5453 5446 5440 5437 5431 5426 5422 5417 5413 5409 5402 5400
5460 5473 5478 5495 5508 5514 5540 5524 5513 5504 5522 5533 5539 5548 5556 5565 5567 5566 5559 5544 5533 5524 5510 5504 5500 5490 5480 5469 5463 5453 5448 5446 5440 5434 5429 5424 5421 5417 5413 5405 5400 5394 5390 5387